Theta_e
281 282 282 281 281 282 280 281 278 281 280 284 286 288 289 291 292 293 302 304 305 306 307 307 306 305 306 314 316 316 316 318 319 319 319 318 317 318 318 318 318 318 317 316
279 282 281 279 282 282 282 282 282 282 281 289 289 290 290 291 293 299 303 305 306 306 305 302 302 303 303 305 315 316 316 318 319 318 318 317 316 316 316 316 316 315 313 311
274 279 280 275 280 281 282 284 283 279 284 288 287 289 290 294 299 302 303 303 302 301 301 300 299 300 301 303 308 315 315 317 317 317 316 316 316 316 314 309 306 302 300 300
275 277 269 279 285 284 282 284 285 285 287 289 290 292 294 303 303 301 300 298 298 297 298 299 299 299 300 302 306 314 314 315 316 316 315 315 315 306 301 300 298 295 292 292
274 274 277 279 282 282 281 282 289 288 291 292 295 295 297 302 301 298 297 296 295 296 297 296 297 296 298 302 308 313 313 314 314 316 313 310 303 298 295 293 291 289 289 288
276 271 269 279 287 291 290 278 290 290 289 293 296 289 294 298 296 295 295 294 294 295 295 294 293 294 297 297 301 312 313 314 315 315 309 303 297 293 292 289 287 286 286 286
276 274 278 284 289 291 276 281 292 291 289 294 292 296 297 295 294 294 293 293 293 293 290 290 290 292 292 292 290 293 301 310 309 308 302 297 293 291 288 287 286 285 284 284
278 275 273 290 290 283 289 292 291 294 293 293 297 296 294 293 291 290 290 291 291 289 288 288 288 289 288 288 290 291 292 295 294 294 293 292 289 288 287 286 284 283 283 282
281 280 288 291 290 295 296 292 292 294 296 297 296 293 291 290 289 288 288 289 289 287 286 286 286 286 284 286 287 287 288 287 288 288 288 288 287 286 285 285 284 282 282 281
283 287 289 290 293 295 295 293 294 292 292 293 290 290 288 288 286 286 286 287 287 286 284 283 284 284 284 284 284 284 283 284 285 285 285 285 285 285 284 283 282 281 280 278
284 286 287 291 290 292 291 291 289 288 288 288 288 286 285 284 284 284 284 284 285 284 282 282 282 282 283 283 283 283 282 282 282 282 281 281 281 281 281 282 282 279 279 279
281 284 285 285 286 288 288 288 287 288 287 285 285 283 283 281 282 281 281 281 282 282 281 280 280 280 281 282 282 281 280 280 280 280 281 281 280 280 283 282 282 281 281 279
283 286 288 288 290 289 287 286 285 285 284 284 283 282 281 280 279 279 279 279 279 279 280 279 278 278 280 281 281 281 280 280 280 280 280 279 279 278 277 280 282 282 281 281
284 286 284 286 286 288 287 286 285 284 283 283 282 282 281 279 278 277 276 276 276 277 278 277 277 276 278 279 279 279 278 279 279 279 279 279 278 278 278 277 276 277 280 280
282 285 283 285 286 286 286 286 283 282 281 281 281 279 278 277 276 275 276 276 276 275 275 275 275 275 277 277 276 276 276 276 277 277 277 277 276 276 276 275 275 275 276 277
281 282 282 281 282 283 283 283 282 281 280 280 279 278 277 276 276 275 275 274 274 274 275 275 275 276 277 277 276 276 275 275 275 274 274 273 273 272 272 272 271 271 271 270
277 277 278 278 278 279 281 282 281 281 280 278 277 277 276 275 275 274 274 275 275 274 275 276 275 276 276 276 276 275 275 275 275 275 274 274 273 272 271 270 269 269 268 269
277 277 278 278 277 277 279 279 279 278 277 277 276 275 274 273 273 273 273 275 274 274 275 276 276 276 276 276 276 275 275 274 274 273 273 272 271 270 269 269 268 267 266 266
276 275 275 277 276 276 277 277 277 277 275 275 273 272 273 273 273 273 273 273 273 273 273 276 276 276 275 275 275 274 274 273 272 272 271 270 270 269 268 267 267 267 266 266
274 274 274 274 274 273 273 274 275 274 274 274 272 272 272 272 272 272 272 271 272 273 275 275 274 274 274 274 274 273 272 272 271 270 270 269 268 267 267 266 266 266 265 265
271 271 270 270 270 269 269 270 271 271 271 272 272 270 270 271 271 271 271 271 272 273 273 273 274 273 273 273 273 273 272 270 270 269 268 267 267 266 266 266 265 265 264 264
268 266 265 266 267 266 267 268 270 269 269 269 269 269 269 269 270 270 270 271 272 271 272 272 272 271 271 271 271 271 270 270 269 269 268 267 266 265 265 265 264 264 264 263
267 266 266 265 265 266 266 266 266 268 268 268 269 269 270 271 272 271 269 271 271 270 271 271 269 268 269 270 270 269 269 268 268 267 267 267 266 266 265 264 264 264 263 263
267 267 266 266 265 267 265 266 267 268 267 268 268 269 270 270 269 270 270 269 268 269 269 269 268 268 268 269 268 268 267 267 267 266 266 265 265 265 264 264 263 263 262 262
267 267 267 266 267 267 266 267 267 267 267 268 269 270 270 271 270 269 269 268 268 268 268 266 266 267 268 268 267 267 267 267 266 266 266 265 265 264 264 263 263 263 262 262
269 269 268 267 268 268 268 268 267 267 268 267 268 269 269 269 269 269 268 267 267 267 267 267 267 267 267 266 266 266 266 265 265 265 264 264 264 264 263 263 262 262 262 261
269 268 269 268 268 268 268 267 267 266 267 267 267 268 268 268 268 268 267 267 267 266 266 266 266 266 266 266 265 265 265 265 264 264 264 264 263 263 262 262 262 261 261 260
Wind_Speed
12 9 7 7 9 7 10 8 7 12 11 16 20 16 17 15 16 13 12 8 7 7 9 10 13 14 13 9 9 10 11 12 13 12 10 8 8 8 6 6 5 5 5 5
8 6 9 13 11 12 15 13 15 19 20 24 20 15 15 14 15 12 7 5 7 8 9 11 13 14 13 12 8 11 11 13 13 12 10 9 8 8 7 6 6 5 5 6
13 7 7 9 20 17 16 15 13 15 20 15 17 12 13 15 11 5 5 7 9 11 11 10 11 12 13 12 12 11 11 11 13 13 11 10 9 9 7 7 7 8 7 8
6 3 10 11 4 5 11 15 11 16 20 19 19 17 14 5 4 5 8 8 9 9 12 12 12 12 13 13 11 8 12 12 12 13 12 11 10 9 9 7 9 8 9 9
4 7 11 14 15 10 9 14 6 10 13 18 19 13 8 5 6 6 8 8 8 10 11 11 13 13 13 12 9 8 11 12 12 13 12 11 11 10 9 11 9 10 9 12
4 5 6 3 3 2 3 11 1 4 8 15 5 6 4 7 8 8 9 9 10 12 10 11 13 14 14 13 11 8 10 11 11 11 12 12 13 13 9 11 12 10 13 13
12 5 6 5 11 4 5 3 5 8 11 8 5 3 8 8 8 8 9 10 11 9 9 11 13 13 11 10 13 12 10 7 9 11 12 13 12 13 14 14 14 13 15 13
2 5 5 8 6 3 6 7 11 11 8 9 6 7 7 8 8 9 10 11 11 9 10 12 13 12 12 13 11 11 9 7 11 11 10 11 15 12 14 15 16 14 15 14
4 4 3 4 8 10 4 5 9 10 10 6 6 7 7 7 9 9 10 10 10 9 9 11 12 12 11 12 10 10 11 10 12 14 12 12 13 13 11 12 13 12 12 13
5 2 7 12 7 6 6 6 8 10 11 10 8 7 6 8 9 9 10 10 9 9 10 11 11 12 10 10 11 11 12 12 9 12 15 12 10 8 7 11 10 11 13 14
6 3 12 10 13 10 12 13 13 12 12 12 10 9 8 9 10 9 9 10 10 9 9 10 11 12 11 11 8 8 10 10 10 11 12 13 14 10 12 9 11 11 13 11
4 15 3 5 8 10 13 13 11 10 11 12 11 9 8 8 8 8 10 10 10 11 10 11 11 11 11 10 8 8 10 9 9 9 9 12 14 16 26 23 27 25 22 16
6 12 10 11 12 9 9 9 9 10 10 9 9 8 8 6 8 10 10 10 10 10 9 9 10 11 10 9 9 9 10 10 9 10 9 10 13 15 18 22 31 30 28 27
14 13 9 15 8 12 9 8 9 8 8 8 7 7 7 7 8 9 9 9 8 9 9 9 9 10 9 8 11 11 11 13 10 9 10 10 12 13 12 14 15 15 23 22
15 10 8 8 10 12 12 9 9 8 8 8 8 8 8 9 9 8 8 7 7 9 8 8 9 10 10 10 11 11 9 8 9 9 10 11 11 12 12 14 14 14 14 16
13 9 12 12 12 13 12 12 9 8 7 7 7 8 8 7 8 8 9 9 9 10 9 9 10 9 9 10 12 12 12 17 13 11 11 11 11 12 12 12 12 11 11 11
8 13 14 13 12 12 12 10 9 8 6 6 7 6 6 6 8 9 9 8 9 10 10 10 10 9 9 10 12 9 9 11 14 11 10 10 11 11 11 11 11 11 11 9
8 7 9 9 10 11 11 10 9 9 7 6 5 5 6 7 7 8 7 7 9 11 11 9 9 10 10 10 10 9 10 10 10 11 10 11 11 10 11 11 11 11 10 11
10 10 10 10 10 10 9 9 9 6 5 4 4 6 7 7 7 7 7 8 9 8 9 9 12 11 11 11 10 9 10 11 11 11 11 13 11 11 10 11 11 10 9 9
9 9 9 9 9 10 9 8 6 5 4 4 4 5 7 6 6 7 8 10 8 5 6 8 10 10 11 11 11 9 10 11 12 11 10 10 10 10 11 12 11 10 9 8
8 8 9 8 8 7 7 7 5 4 4 3 4 5 6 7 6 5 6 6 6 7 8 9 8 7 7 8 9 9 10 11 10 10 10 10 10 10 10 10 10 9 9 9
4 4 5 5 5 6 8 7 6 4 4 4 5 5 6 7 7 8 8 5 4 7 6 6 6 9 8 10 8 9 9 10 10 9 9 9 10 10 10 9 9 9 8 8
3 4 4 5 5 4 4 6 6 5 4 4 4 4 5 4 3 4 5 5 5 7 7 7 9 11 11 8 8 9 10 10 10 9 9 9 9 9 9 9 8 8 8 7
2 3 3 3 2 4 6 6 5 5 4 5 5 4 4 4 6 6 7 8 10 9 7 7 9 11 10 7 8 9 9 9 9 9 9 10 8 8 8 8 8 7 7 7
1 2 2 3 3 3 2 3 3 3 4 5 6 5 5 4 3 4 6 7 10 8 8 10 12 12 8 8 8 9 8 8 8 8 8 8 8 8 8 7 7 7 6 6
1 1 2 3 2 2 2 1 2 2 2 4 4 4 5 6 6 7 7 8 8 9 7 7 7 8 8 9 9 9 8 8 8 8 8 8 8 7 7 7 7 6 5 4
2 2 2 2 3 3 2 1 2 3 3 3 5 4 5 6 7 7 8 7 7 8 7 7 7 8 8 8 8 8 8 8 8 7 7 7 7 6 6 6 5 5 4 4
Wind_Direction
265 252 278 265 262 241 244 242 241 273 272 281 276 302 296 303 305 298 272 286 306 330 359 350 330 331 331 296 184 179 186 182 179 164 158 161 155 164 152 157 155 132 113 94
280 263 278 278 270 242 239 246 255 261 270 264 285 283 286 301 310 292 268 328 331 346 349 333 331 327 323 320 213 178 188 187 170 151 158 167 156 153 152 137 128 106 99 97
269 262 259 270 251 247 247 241 251 258 261 277 286 278 290 310 296 284 333 1 349 341 333 331 330 323 316 314 308 185 182 185 167 152 158 161 157 152 142 112 102 86 69 75
277 278 262 251 273 258 246 256 247 255 264 283 286 291 295 263 346 350 358 4 341 335 328 332 326 326 320 314 286 207 183 176 164 156 160 159 150 122 106 98 101 96 84 75
253 243 281 292 272 251 236 276 260 273 291 300 292 279 235 75 54 25 14 2 343 331 328 334 331 334 312 295 278 197 184 178 171 162 158 142 128 121 113 106 91 84 80 85
189 231 238 256 17 34 89 285 343 313 314 308 302 215 221 69 46 26 19 2 347 339 337 341 344 334 330 337 333 191 183 178 170 161 146 138 129 121 104 101 100 94 88 82
221 239 267 323 315 270 259 312 314 330 294 333 322 11 69 52 39 25 16 5 353 350 350 346 350 340 353 360 4 334 321 133 130 131 126 123 116 121 117 113 107 100 94 87
184 228 251 6 338 318 340 17 334 300 309 329 25 73 63 46 33 23 11 6 8 357 355 353 3 1 9 10 358 356 4 74 95 104 114 114 118 118 119 119 111 108 104 96
293 281 334 320 283 299 295 306 281 331 358 3 50 50 35 30 32 25 16 7 8 9 3 2 7 19 16 359 7 24 42 31 85 94 92 97 113 118 114 115 117 116 109 105
293 236 306 309 305 318 324 287 12 30 24 30 45 32 22 25 30 23 14 6 8 16 19 10 5 18 25 16 25 30 38 50 61 84 90 92 91 89 93 113 110 113 114 115
267 322 321 33 7 36 49 56 53 47 38 29 33 32 23 26 24 20 17 11 13 14 21 21 13 15 15 25 47 59 63 66 63 78 81 88 74 78 85 58 108 115 116 116
323 337 322 5 2 11 50 47 42 44 50 39 31 32 30 26 21 22 22 18 21 22 26 19 22 22 22 26 40 67 68 64 66 64 75 90 95 92 86 99 97 102 106 115
332 324 20 25 40 25 45 37 39 41 39 49 41 47 47 30 25 27 33 29 25 32 30 32 33 33 26 36 56 67 82 85 86 88 95 89 101 102 104 89 92 97 101 106
9 2 4 24 360 6 36 37 37 38 32 35 42 48 56 53 41 33 28 25 26 41 45 44 45 44 31 43 67 71 73 76 81 87 92 100 96 100 101 104 104 99 94 102
4 22 11 10 15 24 26 19 18 20 17 26 33 38 39 48 40 22 17 14 28 46 40 49 55 52 53 59 66 70 70 69 76 82 80 86 91 95 96 97 99 99 99 91
345 15 15 23 13 10 17 15 13 9 8 13 32 42 44 56 57 41 31 22 41 40 32 44 50 46 58 69 75 73 72 78 81 79 81 84 86 89 91 90 91 90 89 92
358 6 2 7 6 360 8 9 4 4 7 17 26 37 52 61 64 54 38 32 44 42 36 44 54 53 59 70 80 78 79 78 86 84 84 85 85 86 88 90 88 84 83 82
13 10 360 356 356 351 358 4 6 12 17 24 33 43 53 54 59 56 48 44 54 47 39 45 53 58 61 65 75 83 85 84 84 84 85 85 86 87 87 89 90 93 96 87
17 10 7 6 4 352 357 357 1 7 22 32 52 60 64 65 69 67 57 47 47 53 33 46 62 68 69 68 78 81 84 87 85 84 87 91 88 85 93 97 100 101 101 100
20 17 12 10 15 8 356 355 353 20 30 71 76 81 82 68 70 74 73 67 50 48 57 66 74 72 73 72 80 83 86 89 93 91 91 93 96 98 100 101 106 107 106 105
24 19 18 10 8 9 360 349 360 22 18 50 103 94 91 81 63 64 76 72 45 52 59 60 67 78 83 93 93 100 104 106 105 106 105 103 106 103 103 104 105 107 106 104
15 16 10 5 13 9 2 1 15 29 49 70 75 95 96 94 89 78 54 68 59 49 63 62 66 72 87 92 95 98 100 101 102 106 107 111 112 113 112 111 111 111 110 108
1 357 356 8 4 11 11 22 16 30 55 66 82 90 92 87 84 106 92 55 72 67 70 70 80 81 81 85 91 95 98 99 100 103 107 108 108 111 114 117 117 118 115 114
341 355 354 345 6 30 35 19 28 41 53 67 64 55 101 104 80 69 83 80 78 75 76 78 77 80 88 90 91 92 95 98 101 103 103 105 106 110 112 115 113 113 113 114
276 339 18 29 34 35 18 14 41 53 61 66 62 62 63 49 90 93 87 86 82 83 81 70 74 74 77 83 87 89 91 93 97 102 103 106 108 108 110 114 118 122 121 121
319 35 46 22 13 347 347 352 58 60 80 83 68 67 76 81 87 89 84 83 79 79 76 71 71 79 82 85 87 88 92 99 97 97 103 106 110 113 116 114 117 122 124 127
72 56 34 24 23 13 20 51 93 85 85 93 91 78 86 88 88 91 90 88 85 83 82 79 75 81 89 91 91 93 95 94 95 101 101 103 105 109 116 120 126 130 136 146